CW4113 Weather Reports


time (UTC)temp
F
wind
direction
speed
knots
gust
knots
rain 1hr
in
rain 24hr
in
rain mn
in
humidity
%
barometer
mb
20260506221806 67 256 2.6 6.1 0.00 0.18 0.18 78 1007.6
20260506220805 67 273 2.6 7.0 0.00 0.18 0.18 79 1007.5
20260506220306 67 249 0.9 2.6 0.00 0.18 0.18 79 1007.4
20260506215806 67 213 2.6 5.2 0.00 0.18 0.18 78 1007.4
20260506215306 67 235 1.7 5.2 0.00 0.18 0.18 79 1007.5
20260506214806 67 336 1.7 2.6 0.00 0.18 0.18 79 1007.2
20260506214306 67 227 1.7 6.1 0.00 0.18 0.18 78 1007.2
20260506213806 67 242 2.6 7.0 0.00 0.18 0.18 78 1007.5
20260506213306 67 268 1.7 5.2 0.00 0.18 0.18 78 1007.4
20260506212805 68 270 5.2 8.7 0.00 0.18 0.18 77 1007.3
20260506212307 68 259 5.2 10.4 0.00 0.18 0.18 77 1007.3
20260506211806 68 265 5.2 10.4 0.00 0.18 0.18 76 1007.3
20260506211305 68 241 4.3 10.4 0.00 0.18 0.18 76 1007.0
20260506210806 69 278 4.3 10.4 0.00 0.18 0.18 76 1007.1
20260506210305 69 229 5.2 12.2 0.00 0.18 0.18 75 1006.9
20260506205306 69 286 3.5 8.7 0.00 0.18 0.18 78 1006.9
20260506204805 68 246 1.7 6.1 0.00 0.18 0.18 81 1006.9
20260506204305 67 241 4.3 8.7 0.00 0.18 0.18 81 1006.9
20260506202806 66 222 6.1 10.4 0.00 0.18 0.18 83 1007.0
20260506201806 65 205 2.6 8.7 0.00 0.18 0.18 83 1007.0
20260506201305 65 248 5.2 8.7 0.00 0.18 0.18 84 1007.0
20260506200805 65 221 4.3 7.0 0.00 0.18 0.18 83 1007.1
20260506200305 65 236 2.6 6.1 0.00 0.18 0.18 84 1007.1
20260506195805 65 227 2.6 6.1 0.00 0.18 0.18 83 1007.2
20260506195306 65 234 2.6 7.8 0.00 0.18 0.18 84 1007.2
20260506194805 65 213 1.7 4.3 0.00 0.18 0.18 83 1007.2
20260506194305 65 213 2.6 7.0 0.00 0.18 0.18 84 1007.2
20260506193806 65 240 2.6 10.4 0.00 0.18 0.18 83 1007.2
20260506193306 65 242 2.6 7.8 0.00 0.18 0.18 84 1007.2
20260506192806 65 237 4.3 7.8 0.00 0.18 0.18 83 1007.2
20260506192306 65 270 4.3 11.3 0.00 0.18 0.18 83 1007.2
20260506191806 66 235 7.8 11.3 0.00 0.18 0.18 83 1007.2
20260506191305 65 219 3.5 7.8 0.00 0.18 0.18 86 1007.3
20260506190805 64 237 1.7 7.8 0.00 0.18 0.18 86 1007.3
20260506190306 64 238 5.2 10.4 0.00 0.18 0.18 86 1007.5
20260506185307 64 249 5.2 10.4 0.00 0.18 0.18 86 1007.4
20260506184805 64 239 3.5 11.3 0.00 0.18 0.18 86 1007.5
20260506184306 64 203 6.1 14.8 0.00 0.18 0.18 87 1007.5
20260506183805 64 188 4.3 10.4 0.00 0.18 0.18 88 1007.5
20260506183305 63 207 7.0 13.9 0.00 0.18 0.18 88 1007.6
20260506182805 63 255 7.0 10.4 0.00 0.18 0.18 88 1007.7
20260506182307 62 247 4.3 10.4 0.00 0.18 0.18 88 1007.7
20260506181805 62 242 5.2 10.4 0.00 0.18 0.18 88 1007.8
20260506181305 62 204 5.2 13.0 0.00 0.18 0.18 88 1007.9
20260506180805 62 222 6.1 14.8 0.00 0.18 0.18 87 1007.9
20260506180305 62 225 2.6 13.9 0.00 0.18 0.18 87 1008.0
20260506175806 62 238 5.2 10.4 0.00 0.18 0.18 87 1008.0
20260506175306 62 216 2.6 14.8 0.00 0.18 0.18 88 1008.1
20260506174805 61 200 7.8 15.6 0.00 0.18 0.18 88 1008.0
20260506174305 61 196 3.5 10.4 0.00 0.18 0.18 88 1008.0
20260506173306 61 212 5.2 10.4 0.00 0.18 0.18 88 1008.0
20260506172805 61 233 3.5 11.3 0.00 0.18 0.18 88 1007.9
20260506172307 61 178 4.3 10.4 0.00 0.18 0.18 88 1007.9
20260506171805 61 259 4.3 8.7 0.00 0.18 0.18 88 1007.9
20260506171305 61 192 5.2 14.8 0.00 0.18 0.18 88 1007.9
20260506170805 61 186 4.3 10.4 0.00 0.18 0.18 88 1007.9
20260506165805 61 222 3.5 10.4 0.01 0.18 0.18 88 1007.9
20260506164806 61 185 5.2 10.4 0.01 0.18 0.18 88 1008.1
20260506164305 61 204 4.3 10.4 0.02 0.18 0.18 88 1008.0
20260506163805 61 245 2.6 10.4 0.03 0.18 0.18 88 1008.2
20260506163305 61 224 6.1 10.4 0.03 0.18 0.18 88 1008.2
20260506162805 62 148 4.3 10.4 0.03 0.18 0.18 88 1008.2
20260506161805 62 209 5.2 12.2 0.04 0.18 0.18 88 1008.1
20260506161305 62 200 7.0 18.2 0.05 0.18 0.18 88 1008.1
20260506160805 62 185 7.8 18.2 0.05 0.18 0.18 88 1008.0
20260506160305 62 214 3.5 10.4 0.06 0.18 0.18 89 1007.8
20260506155805 61 159 7.8 18.2 0.05 0.17 0.17 89 1007.7
20260506155306 61 127 6.1 13.0 0.05 0.17 0.17 89 1007.4
20260506154805 61 149 5.2 13.9 0.06 0.17 0.17 88 1007.8
20260506154305 61 170 6.1 13.9 0.05 0.16 0.16 88 1008.1
20260506153805 61 159 5.2 10.4 0.04 0.15 0.15 88 1008.3
20260506152306 61 154 3.5 7.0 0.05 0.14 0.14 88 1008.8
20260506151305 61 199 2.6 8.7 0.06 0.13 0.13 88 1008.9
20260506150805 61 193 2.6 10.4 0.07 0.13 0.13 88 1008.9
20260506150305 61 219 5.2 12.2 0.07 0.12 0.12 88 1008.8
20260506145805 62 204 3.5 10.4 0.07 0.12 0.12 87 1009.0
20260506145306 62 199 5.2 10.4 0.07 0.12 0.12 87 1009.0
20260506144805 62 186 6.1 10.4 0.06 0.11 0.11 87 1008.9
20260506144305 62 171 5.2 12.2 0.06 0.11 0.11 87 1008.7
20260506143805 62 176 5.2 8.7 0.07 0.11 0.11 87 1008.7
20260506142805 62 167 4.3 12.2 0.06 0.10 0.10 87 1008.6
20260506142306 62 199 4.3 10.4 0.05 0.09 0.09 87 1008.6
20260506141805 62 204 3.5 7.8 0.05 0.08 0.08 87 1008.6
20260506141305 62 158 2.6 6.1 0.04 0.07 0.07 87 1008.5
20260506140805 62 134 5.2 7.8 0.04 0.06 0.06 86 1008.6
20260506140305 62 166 0.9 13.9 0.03 0.05 0.05 86 1008.6
20260506135805 62 201 2.6 7.8 0.03 0.05 0.05 86 1008.7
20260506135306 62 219 3.5 7.8 0.03 0.05 0.05 86 1008.7
20260506134805 62 173 2.6 10.4 0.03 0.05 0.05 86 1008.8
20260506134305 62 194 1.7 7.8 0.04 0.05 0.05 86 1008.7
20260506133805 62 233 2.6 8.7 0.03 0.04 0.04 85 1008.7
20260506133305 62 157 4.3 10.4 0.03 0.04 0.04 85 1008.8
20260506132805 62 155 2.6 7.0 0.03 0.04 0.04 84 1008.7
20260506132307 62 227 5.2 11.3 0.03 0.04 0.04 84 1008.7
20260506130305 62 209 2.6 7.0 0.02 0.02 0.02 83 1009.0
20260506125805 62 186 4.3 8.7 0.02 0.02 0.02 83 1009.0
20260506125306 62 227 5.2 10.4 0.02 0.02 0.02 82 1009.0
20260506124805 62 208 5.2 10.4 0.02 0.02 0.02 82 1009.0
20260506124305 62 168 2.6 8.7 0.01 0.01 0.01 82 1009.0
20260506123805 63 204 5.2 10.4 0.01 0.01 0.01 81 1009.1
20260506123304 63 206 6.1 10.4 0.01 0.01 0.01 81 1009.1
20260506122805 63 193 5.2 11.3 0.01 0.01 0.01 81 1009.1
20260506122306 63 231 2.6 7.8 0.01 0.01 0.01 81 1009.1
20260506121804 63 227 3.5 6.1 0.01 0.01 0.01 81 1009.0
20260506121305 63 160 5.2 10.4 0.01 0.01 0.01 80 1008.9
20260506120804 63 222 4.3 10.4 0.00 0.00 0.00 79 1009.0
20260506115805 63 214 6.1 13.9 0.00 0.00 0.00 78 1008.7
20260506114805 64 220 5.2 13.0 0.00 0.00 0.00 76 1008.7
20260506114304 64 201 4.3 13.0 0.00 0.00 0.00 76 1008.7
20260506113804 64 228 4.3 12.2 0.00 0.00 0.00 75 1008.7
20260506113305 64 178 6.1 12.2 0.00 0.00 0.00 74 1008.7
20260506112805 64 218 6.1 12.2 0.00 0.00 0.00 73 1008.6
20260506112306 64 202 4.3 10.4 0.00 0.00 0.00 73 1008.5
20260506111805 65 197 4.3 10.4 0.00 0.00 0.00 73 1008.5
20260506111304 65 182 5.2 14.8 0.00 0.00 0.00 73 1008.4
20260506110805 65 193 5.2 12.2 0.00 0.00 0.00 72 1008.4
20260506105305 65 160 5.2 14.8 0.00 0.00 0.00 72 1008.4
20260506104804 65 207 7.8 17.4 0.00 0.00 0.00 72 1008.4
20260506103304 65 198 5.2 14.8 0.00 0.00 0.00 71 1008.0
20260506102805 65 183 6.1 14.8 0.00 0.00 0.00 71 1008.1
20260506102306 65 185 4.3 11.3 0.00 0.00 0.00 71 1008.1
20260506101804 65 214 7.8 13.9 0.00 0.00 0.00 70 1008.0
20260506101304 65 168 7.0 13.0 0.00 0.00 0.00 70 1007.9
20260506100804 65 187 7.0 13.9 0.00 0.00 0.00 70 1007.9
20260506100305 65 146 7.0 12.2 0.00 0.00 0.00 70 1007.8
20260506095306 65 203 5.2 11.3 0.00 0.00 0.00 70 1007.8
20260506094805 66 210 5.2 13.0 0.00 0.00 0.00 69 1007.9
20260506094304 66 162 6.1 14.8 0.00 0.00 0.00 69 1008.0
20260506093804 66 189 5.2 13.9 0.00 0.00 0.00 69 1008.0
20260506093304 66 202 5.2 14.8 0.00 0.00 0.00 68 1008.0
20260506092804 66 190 4.3 12.2 0.00 0.00 0.00 68 1008.0
20260506091805 66 203 6.1 13.0 0.00 0.00 0.00 68 1008.0
20260506091304 66 165 4.3 11.3 0.00 0.00 0.00 68 1008.0
20260506090805 66 169 6.1 13.0 0.00 0.00 0.00 67 1008.1
20260506090304 66 181 7.8 17.4 0.00 0.00 0.00 67 1008.1
20260506085804 66 185 7.0 11.3 0.00 0.00 0.00 66 1008.1
20260506085306 66 158 7.8 13.9 0.00 0.00 0.00 66 1008.2
20260506084805 66 211 5.2 10.4 0.00 0.00 0.00 66 1008.2
20260506084304 66 184 4.3 10.4 0.00 0.00 0.00 65 1008.3
20260506083304 66 182 5.2 11.3 0.00 0.00 0.00 64 1008.3
20260506082804 67 222 3.5 10.4 0.00 0.00 0.00 64 1008.3
20260506082305 67 172 7.8 12.2 0.00 0.00 0.00 64 1008.3
20260506081805 67 219 6.1 12.2 0.00 0.00 0.00 63 1008.3
20260506081305 67 218 5.2 10.4 0.00 0.00 0.00 63 1008.3
20260506080804 67 204 5.2 8.7 0.00 0.00 0.00 63 1008.3
20260506080304 67 240 4.3 8.7 0.00 0.00 0.00 62 1008.3
20260506073304 68 177 7.8 13.0 0.00 0.00 0.00 60 1008.4
20260506072305 68 178 5.2 11.3 0.00 0.00 0.00 60 1008.5
20260506071304 68 163 6.1 12.2 0.00 0.00 0.00 60 1008.5
20260506070804 68 185 4.3 11.3 0.00 0.00 0.00 59 1008.6
20260506070304 68 202 6.1 11.3 0.00 0.00 0.00 59 1008.7
20260506062306 68 212 6.1 10.4 0.00 0.00 0.00 56 1009.0
20260506061805 68 161 5.2 10.4 0.00 0.00 0.00 56 1009.0
20260506061304 68 205 4.3 11.3 0.00 0.00 0.00 56 1009.0
20260506060804 69 231 3.5 12.2 0.00 0.00 0.00 56 1009.0
20260506060304 68 196 6.1 10.4 0.00 0.00 0.00 56 1009.0
20260506051304 68 181 6.1 11.3 0.00 0.00 0.00 54 1009.4
20260506050804 68 184 5.2 11.3 0.00 0.00 0.00 54 1009.3
20260506050304 68 200 4.3 12.2 0.00 0.00 0.00 54 1009.4
20260506044304 69 167 2.6 11.3 0.00 0.00 0.00 53 1009.5
20260506043804 69 168 4.3 12.2 0.00 0.00 0.00 53 1009.6
20260506043305 69 185 6.1 11.3 0.00 0.00 0.00 52 1009.5
20260506042305 69 165 6.1 11.3 0.00 0.00 0.00 52 1009.6
20260506041804 69 185 6.1 10.4 0.00 0.00 0.00 51 1009.6
20260506041304 69 185 5.2 13.0 0.00 0.00 0.00 51 1009.6
20260506040817 69 148 4.3 10.4 0.00 0.00 0.00 51 1009.6
20260506040304 69 180 6.1 11.3 0.00 0.00 0.00 51 1009.6
20260506035804 69 167 2.6 7.0 0.00 0.00 0.00 51 1009.6
20260506035306 69 155 4.3 8.7 0.00 0.00 0.00 50 1009.6
20260506034304 69 184 2.6 8.7 0.00 0.00 0.00 50 1009.5
20260506033304 69 192 2.6 8.7 0.00 0.00 0.00 51 1009.5
20260506032804 69 198 1.7 8.7 0.00 0.00 0.00 50 1009.5
20260506032305 69 185 4.3 7.0 0.00 0.00 0.00 50 1009.5
20260506031804 69 118 1.7 10.4 0.00 0.00 0.00 49 1009.5
20260506031304 69 148 2.6 7.0 0.00 0.00 0.00 50 1009.5
20260506030804 70 165 4.3 8.7 0.00 0.00 0.00 50 1009.5
20260506030304 70 150 2.6 8.7 0.00 0.00 0.00 49 1009.5
20260506025804 70 190 2.6 8.7 0.00 0.00 0.00 49 1009.5
20260506025305 70 192 3.5 10.4 0.00 0.00 0.00 49 1009.5
20260506024804 70 155 3.5 7.8 0.00 0.00 0.00 49 1009.5
20260506024304 70 163 4.3 10.4 0.00 0.00 0.00 49 1009.5
20260506023804 70 177 4.3 8.7 0.00 0.00 0.00 48 1009.5
20260506023303 70 156 3.5 8.7 0.00 0.00 0.00 48 1009.5
20260506022306 70 126 5.2 10.4 0.00 0.00 0.00 48 1009.5
20260506021804 71 179 2.6 10.4 0.00 0.00 0.00 47 1009.5
20260506021304 71 138 3.5 7.8 0.00 0.00 0.00 46 1009.5
20260506020804 71 164 4.3 10.4 0.00 0.00 0.00 46 1009.6
20260506020304 71 173 4.3 11.3 0.00 0.00 0.00 46 1009.6
20260506014806 71 153 6.1 10.4 0.00 0.00 0.00 45 1009.3
20260506014306 71 172 3.5 7.0 0.00 0.00 0.00 45 1009.3
20260506013806 71 150 3.5 8.7 0.00 0.00 0.00 45 1009.3
20260506013306 72 199 2.6 8.7 0.00 0.00 0.00 44 1009.3
20260506012805 72 157 1.7 7.0 0.00 0.00 0.00 44 1009.3
20260506012308 72 156 4.3 10.4 0.00 0.00 0.00 43 1009.2
20260506011306 73 181 4.3 10.4 0.00 0.00 0.00 42 1009.1
20260506010806 73 171 3.5 7.8 0.00 0.00 0.00 42 1009.0
20260506010306 73 150 4.3 8.7 0.00 0.00 0.00 42 1008.9
20260506005805 73 144 4.3 8.7 0.00 0.00 0.00 41 1008.8
20260506005306 73 187 2.6 7.8 0.00 0.00 0.00 41 1008.8
20260506004806 74 118 3.5 10.4 0.00 0.00 0.00 40 1008.8
20260506004306 74 132 4.3 7.8 0.00 0.00 0.00 40 1008.7
20260506003806 74 183 5.2 10.4 0.00 0.00 0.00 40 1008.7
20260506003305 74 166 1.7 8.7 0.00 0.00 0.00 40 1008.6
20260506002806 75 162 4.3 7.8 0.00 0.00 0.00 39 1008.6
20260506001806 75 172 4.3 11.3 0.00 0.00 0.00 40 1008.5
20260506001306 75 204 1.7 10.4 0.00 0.00 0.00 39 1008.5
20260506000806 75 165 5.2 8.7 0.00 0.00 0.00 38 1008.4
20260506000306 76 191 3.5 10.4 0.00 0.00 0.00 38 1008.4
20260505233806 76 166 4.3 10.4 0.00 0.00 0.00 38 1008.1
20260505233306 76 152 7.8 13.9 0.00 0.00 0.00 38 1008.1
20260505231805 77 201 6.1 12.2 0.00 0.00 0.00 38 1008.1
20260505231306 77 173 4.3 7.8 0.00 0.00 0.00 38 1008.0
20260505230805 77 228 4.3 12.2 0.00 0.00 0.00 38 1008.0
20260505230306 77 173 5.2 13.9 0.00 0.00 0.00 38 1008.0
20260505225806 77 166 5.2 13.0 0.00 0.00 0.00 38 1008.0
20260505225306 78 241 3.5 15.6 0.00 0.00 0.00 38 1008.0
20260505224806 78 182 3.5 8.7 0.00 0.00 0.00 37 1008.1
20260505224306 78 154 2.6 10.4 0.00 0.00 0.00 37 1008.1
20260505223306 78 173 7.0 11.3 0.00 0.00 0.00 36 1008.2
20260505222805 78 198 4.3 8.7 0.00 0.00 0.00 38 1008.1
20260505222306 78 205 7.8 13.9 0.00 0.00 0.00 37 1008.0